User: anonymous   Login
Location: Unspecified
(0.0000°N, 0.0000°E)
Time: 05:24:22
(UTC+00:00)
Language:

STARLINK-33924 - Orbit

View from above orbital plane
View from above orbital plane
View from above satellite
View from above satellite

Ground track
Ground track

The orbit is defined by the following mean orbital elements,

1 64149U          26145.57781014 +.00000000 +00000-0 +14364-3 0 00009
2 64149  97.4493 196.8671 0001594 135.2030 224.9326 15.05654696    08
Epoch (UTC): 25 May 2026 13:52:02
Eccentricity: 0.0001594
inclination: 97.4493°
perigee height: 548 km
apogee height: 551 km
right ascension of ascending node: 196.8671°
argument of perigee: 135.2030°
revolutions per day: 15.05654696
mean anomaly at epoch: 224.9326°

The dashed part of the orbit path shows where the satellite is in the earth's shadow,  

DLR